This is the latest recevied weather packets stored in our database for station/object KB1FFS. If no packets are shown the sender has not sent any weather packets the latest 10 day(s).
| Time | Temp. | Humidity | Pressure | Rain* | Wind** | Luminosity | Snow |
|---|---|---|---|---|---|---|---|
| 1787938868 | 38.33° C | 36% | 1019.5 hPa | 0 mm | - | 747 W/m² | - |
| 1787938567 | 37.78° C | 38% | 1019.2 hPa | 0 mm | - | 721 W/m² | - |
| 1787938263 | 37.78° C | 38% | 1019.4 hPa | 0 mm | - | 721 W/m² | - |
| 1787937963 | 37.78° C | 38% | 1019.6 hPa | 0 mm | - | 721 W/m² | - |
| 1787937659 | 37.78° C | 40% | 1019.4 hPa | 0 mm | - | 716 W/m² | - |
| 1787937355 | 37.78° C | 40% | 1019.6 hPa | 0 mm | - | 710 W/m² | - |
| 1787937051 | 37.22° C | 43% | 1019.8 hPa | 0 mm | - | 695 W/m² | - |
| 1787936750 | 37.22° C | 43% | 1019.6 hPa | 0 mm | - | 695 W/m² | - |
| 1787936450 | 37.22° C | 43% | 1019.7 hPa | 0 mm | - | 695 W/m² | - |
| 1787936150 | 37.22° C | 43% | 1020 hPa | 0 mm | - | 695 W/m² | - |
| 1787935845 | 37.22° C | 38% | 1019.8 hPa | 0 mm | - | 678 W/m² | - |
| 1787935541 | 36.67° C | 39% | 1019.8 hPa | 0 mm | - | 666 W/m² | - |
| 1787935237 | 36.67° C | 42% | 1019.7 hPa | 0 mm | - | 662 W/m² | - |
| 1787934932 | 36.67° C | 39% | 1019.8 hPa | 0 mm | - | 647 W/m² | - |
| 1787934628 | 36.11° C | 44% | 1019.7 hPa | 0 mm | - | 636 W/m² | - |
| 1787934327 | 36.11° C | 45% | 1019.7 hPa | 0 mm | - | 627 W/m² | - |
| 1787934027 | 36.11° C | 42% | 1019.8 hPa | 0 mm | - | 622 W/m² | - |
| 1787933726 | 35.56° C | 45% | 1019.8 hPa | 0 mm | - | 613 W/m² | - |
| 1787933427 | 35.56° C | 46% | 1019.8 hPa | 0 mm | - | 591 W/m² | - |
| 1787933126 | 35.56° C | 48% | 1019.6 hPa | 0 mm | - | 581 W/m² | - |
| 1787932821 | 35.56° C | 50% | 1019.6 hPa | 0 mm | - | 565 W/m² | - |
| 1787932515 | 35° C | 49% | 1019.6 hPa | 0 mm | - | 554 W/m² | - |
| 1787932210 | 35° C | 50% | 1019.7 hPa | 0 mm | - | 537 W/m² | - |
| 1787931909 | 35° C | 51% | 1019.5 hPa | 0 mm | - | 520 W/m² | - |
| 1787931609 | 35° C | 50% | 1019.4 hPa | 0 mm | - | 506 W/m² | - |
* Rain latest hour (hover to see other rain measurements)
** Current wind speed in m/s (hover to see current wind gust speed)